Lakeland, FL

4:49 PM EST on January 17, 2017 (GMT -0500)
Lakeland Linder Regional

Weather History for KLAL - November, 2012

Change the Weather History Date:

Monday, November 12, 2012

  Actual Average Record
Temperature  
Mean Temperature 70 °F -  
Max Temperature 82 °F 75 °F 88 °F (1986)
Min Temperature 59 °F 58 °F 42 °F (1987)
Cooling Degree Days 6    
Growing Degree Days 20 (Base 50)    
Moisture  
Dew Point 61 °F    
Average Humidity 82    
Maximum Humidity 100    
Minimum Humidity 45    
Precipitation  
Precipitation 0.00 in - - ()
Sea Level Pressure  
Sea Level Pressure 30.21 in    
Wind  
Wind Speed 4 mph (ENE)    
Max Wind Speed 14 mph    
Max Gust Speed 18 mph    
Visibility 11 miles    
Events Rain    
Averages and records for this station are not official NWS values.
T = Trace of Precipitation, MM = Missing Value Source: NWS Daily Summary

Daily Weather History Graph

Daily Weather History Graph

Search for Another Location

Airport or City:

Trip Planner

Search our weather history database for the weather conditions in past years. The results will help you decide how hot, cold, wet, or windy it might be!

Date:

Astronomy

Nov. 12, 2012 Rise Set
Actual Time 6:47 AM EST 5:36 PM EST
Civil Twilight 6:23 AM EST 6:01 PM EST
Nautical Twilight 5:54 AM EST 6:29 PM EST
Astronomical Twilight 5:26 AM EST 6:57 PM EST
Moon 5:16 AM EST (11/12) 4:38 PM EST (11/12)
Length of Visible Light 11h 38m
Length of Day
10h 48m
Waning Crescent, 2% of the Moon is Illuminated
Nov 12
Waning Crescent
Nov 13
New
Nov 20
First Quarter
Nov 28
Full
Dec 6
Last Quarter

Hourly Weather History & Observations

Time (EST) Temp. Heat Index Dew Point Humidity Pressure Visibility Wind Dir Wind Speed Gust Speed Precip Events Conditions
12:15 AM 60.8 °F - 59.0 °F 94% 30.24 in 10.0 mi East 4.6 mph - N/A   Clear
12:35 AM 62.6 °F - 60.8 °F 94% 30.23 in 10.0 mi Calm Calm - N/A   Clear
12:55 AM 60.8 °F - 59.0 °F 94% 30.23 in 10.0 mi Calm Calm - N/A   Clear
1:15 AM 60.8 °F - 59.0 °F 94% 30.23 in 10.0 mi Calm Calm - N/A   Clear
1:55 AM 60.8 °F - 59.0 °F 94% 30.23 in 10.0 mi NNE 3.5 mph - N/A   Clear
2:15 AM 60.8 °F - 59.0 °F 94% 30.22 in 10.0 mi Calm Calm - N/A   Clear
2:35 AM 59.0 °F - 59.0 °F 100% 30.22 in 10.0 mi Calm Calm - N/A   Clear
2:55 AM 60.8 °F - 59.0 °F 94% 30.22 in 7.0 mi Calm Calm - N/A   Clear
3:15 AM 59.0 °F - 59.0 °F 100% 30.22 in 10.0 mi North 3.5 mph - N/A   Scattered Clouds
3:35 AM 60.8 °F - 60.8 °F 100% 30.21 in 10.0 mi NNE 3.5 mph - N/A   Overcast
3:55 AM 60.8 °F - 60.8 °F 100% 30.21 in 10.0 mi Calm Calm - N/A   Overcast
4:15 AM 60.8 °F - 59.0 °F 94% 30.21 in 10.0 mi Calm Calm - N/A   Mostly Cloudy
4:35 AM 60.8 °F - 60.8 °F 100% 30.21 in 10.0 mi NE 4.6 mph - N/A   Overcast
4:55 AM 60.8 °F - 60.8 °F 100% 30.21 in 7.0 mi East 4.6 mph - N/A Rain Rain
5:15 AM 62.6 °F - 62.6 °F 100% 30.21 in 10.0 mi ENE 6.9 mph - N/A   Overcast
5:35 AM 62.6 °F - 60.8 °F 94% 30.21 in 10.0 mi East 4.6 mph - N/A   Mostly Cloudy
5:50 AM 62.6 °F - 62.6 °F 100% 30.21 in 7.0 mi ENE 4.6 mph - N/A   Scattered Clouds
6:50 AM 60.8 °F - 60.8 °F 100% 30.23 in 7.0 mi Calm Calm - N/A   Scattered Clouds
8:50 AM 64.4 °F - 64.4 °F 100% 30.24 in 10.0 mi ENE 3.5 mph - N/A   Scattered Clouds
8:54 AM 71.6 °F - 64.4 °F 78% 30.25 in 10.0 mi East 6.9 mph - N/A   Scattered Clouds
9:50 AM 75.2 °F - 64.4 °F 69% 30.26 in 10.0 mi ESE 8.1 mph - N/A   Scattered Clouds
10:50 AM 78.8 °F - 64.4 °F 61% 30.25 in 10.0 mi East 8.1 mph - N/A   Mostly Cloudy
11:50 AM 80.6 °F 81.8 °F 62.6 °F 54% 30.23 in 12.0 mi East 12.7 mph - N/A   Mostly Cloudy
12:50 PM 82.4 °F 82.9 °F 60.8 °F 48% 30.20 in 15.0 mi East 13.8 mph 18.4 mph N/A   Mostly Cloudy
1:50 PM 80.6 °F 80.8 °F 57.2 °F 45% 30.18 in 15.0 mi ESE 9.2 mph - N/A   Mostly Cloudy
2:50 PM 82.4 °F 82.9 °F 60.8 °F 48% 30.16 in 15.0 mi ENE 6.9 mph - N/A   Mostly Cloudy
3:50 PM 80.6 °F 81.5 °F 60.8 °F 51% 30.16 in 15.0 mi East 10.4 mph - N/A   Mostly Cloudy
4:50 PM 80.6 °F 81.5 °F 60.8 °F 51% 30.16 in 15.0 mi East 9.2 mph - N/A   Mostly Cloudy
5:50 PM 75.2 °F - 62.6 °F 65% 30.17 in 15.0 mi East 6.9 mph - N/A   Overcast
6:50 PM 73.4 °F - 62.6 °F 69% 30.18 in 12.0 mi East 4.6 mph - N/A   Overcast
7:50 PM 71.6 °F - 62.6 °F 73% 30.19 in 10.0 mi East 5.8 mph - N/A   Overcast
8:50 PM 71.6 °F - 62.6 °F 73% 30.20 in 12.0 mi East 5.8 mph - N/A   Mostly Cloudy
9:50 PM 69.8 °F - 62.6 °F 78% 30.20 in 10.0 mi NE 4.6 mph - N/A   Overcast
9:55 PM 68.0 °F - 62.6 °F 83% 30.20 in 10.0 mi NE 3.5 mph - N/A   Overcast
10:15 PM 69.8 °F - 62.6 °F 78% 30.20 in 10.0 mi Calm Calm - N/A   Overcast
10:35 PM 69.8 °F - 62.6 °F 78% 30.20 in 10.0 mi East 3.5 mph - N/A   Overcast
10:55 PM 69.8 °F - 62.6 °F 78% 30.20 in 10.0 mi East 3.5 mph - N/A   Overcast
11:15 PM 68.0 °F - 62.6 °F 83% 30.20 in 10.0 mi East 3.5 mph - N/A   Mostly Cloudy
11:35 PM 68.0 °F - 62.6 °F 83% 30.19 in 10.0 mi East 3.5 mph - N/A   Mostly Cloudy
11:55 PM 68.0 °F - 62.6 °F 83% 30.18 in 10.0 mi East 4.6 mph - N/A   Scattered Clouds